Ozark Regional Airport Mountain Home US
ICAO: KBPK
IATA: WMH
Category: Medium
Scheduled Services: No

Elevation: 928 ft
TransAlt. 18000 ft.

Airport Communications:
ASOS:133.975
MEMPHIS CNTR:126.85
CTAF/UNICOM:123

KBPK Zoom In..

If you have problems with the map follow the link
https://www.worldairports.se/pages/airport.php?
ICAO=KBPK

Runways:

(A) RW 05 length 5001 ft width 75 ft
ILS 111.95 / hdg 49

(B) RW 23 length 5001 ft width 75 ft
---- / hdg 229

Location; KBPK
Day. 16 / Time. 11.53 Zulu
* Altimeter: 30.10
* Temperature: 02° c. 35.6°f.
* Wind from: 000° Speed 00 kn.
Dewpoint: 02° c.
Visibility: 10 Statute Miles.
Clouds: Clear (automated report).

KBPK 161153Z AUTO 00000KT 10SM CLR 02/02 A3010 RMK AO2 SLP196 T00170017 10039 20000 53014


Wind - Calm.

 
 
jpsmedia.com for Web Design worldairports.se 2018   terms of use